[Date Prev][Date Next][Thread Prev][Thread Next] - [Date Index][Thread Index][Author Index]
2 Line ISS Keps 12-28
- Subject: [sarex] 2 Line ISS Keps 12-28
- From: "Dave Larsen PhD" <doc@xxxxxxxxxxx>
- Date: Tue, 28 Dec 2004 02:42:57 -0800
ISS
1 25544U 98067A 04363.35393787 .00106760 00000-0 79463-3 0 4617
2 25544 51.6423 54.4845 0003973 146.3146 317.3903 15.71963092348824
----
Via the sarex mailing list at AMSAT.ORG courtesy of AMSAT-NA.
To unsubscribe, send "unsubscribe sarex" to Majordomo@amsat.org
AMSAT Home